(°C)
16°
15°
15°
14°
14°
14°
13°
(°C)
13°
13°
13°
13°
13°
12°
12°
В
В
ВСВ
ВСВ
СВ
СВ
ССВ
(км/ч)
15-30
14-29
12-26
11-22
10-21
10-23
10-25
(мм)
0
0.9
1.2
1.4
1.4
1.3
1.6
(%)
71
98
99
99
99
99
99

Высота солнцестояния

/ 58.1°
sun-icon
UV 2
04:48
22:15
Растущая луна (176°)
22:16
03:57

METAR для 55.03°С 82.6°В (UNNT)

Время Условия Температура/
Точка росы
Ветер Видимость Погода Облачность Давление Изменить Необработанный
VFR 17°C / 11°C 70º 10kt >10km - Broken Clouds 3200ft 1002 No Significant change. Runway 16: Damp, 26-50% contamination with <1mm, friction coefficient 0.65. Runway 07: Clear and dry, 51-100% contamination with <1mm, friction coefficient 0.70. UNNT 240600Z 07005MPS 9999 BKN032CB 17/11 Q1002 R16/150065 R07/090070 NOSIG RMK QFE741/0989
VFR 16°C / 11°C 70º 8kt >10km - Broken Clouds 3500ft 1002 No Significant change. Runway 16: Damp, 26-50% contamination with <1mm, friction coefficient 0.65. Runway 07: Clear and dry, 51-100% contamination with <1mm, friction coefficient 0.70. UNNT 240530Z 07004MPS 9999 BKN035CB 16/11 Q1002 R16/150065 R07/090070 NOSIG RMK QFE742/0989
VFR 16°C / 11°C 80º 10kt >10km - Scattered Clouds 3400ft 1002 No Significant change. Runway 16: Damp, 26-50% contamination with <1mm, friction coefficient 0.65. Runway 07: Clear and dry, 51-100% contamination with <1mm, friction coefficient 0.70. UNNT 240500Z 08005MPS 9999 SCT034 16/11 Q1002 R16/150065 R07/090070 NOSIG RMK QFE742/0989
VFR 16°C / 11°C 70º 10kt >10km - Scattered Clouds 4000ft 1002 No Significant change. Runway 16: Damp, 26-50% contamination with <1mm, friction coefficient 0.65. Runway 07: Clear and dry, 51-100% contamination with <1mm, friction coefficient 0.70. UNNT 240430Z 07005MPS 9999 SCT040 16/11 Q1002 R16/150065 R07/090070 NOSIG RMK QFE741/0989
VFR 16°C / 11°C 70º 10kt >10km - Few Clouds 4000ft 1002 No Significant change. Runway 16: Damp, 26-50% contamination with <1mm, friction coefficient 0.65. Runway 07: Clear and dry, 51-100% contamination with <1mm, friction coefficient 0.70. UNNT 240400Z 07005MPS 9999 FEW040 16/11 Q1002 R16/150065 R07/090070 NOSIG RMK QFE742/0989
VFR 16°C / 11°C 60º 10kt >10km - Clouds and Visibility OK 1002 No Significant change. Runway 16: Damp, 26-50% contamination with <1mm, friction coefficient 0.65. Runway 07: Clear and dry, 51-100% contamination with <1mm, friction coefficient 0.70. UNNT 240330Z 06005MPS CAVOK 16/11 Q1002 R16/150065 R07/090070 NOSIG RMK QFE741/0989
VFR 15°C / 11°C 60º 10kt >10km - Clouds and Visibility OK 1002 No Significant change. Runway 16: Damp, 26-50% contamination with <1mm, friction coefficient 0.65. Runway 07: Clear and dry, 51-100% contamination with <1mm, friction coefficient 0.70. UNNT 240300Z 06005MPS CAVOK 15/11 Q1002 R16/150065 R07/090070 NOSIG RMK QFE742/0989
VFR 15°C / 11°C 50º 8kt >10km - Clouds and Visibility OK 1002 No Significant change. Runway 16: Damp, 26-50% contamination with <1mm, friction coefficient 0.65. Runway 07: Clear and dry, 51-100% contamination with <1mm, friction coefficient 0.70. UNNT 240230Z 05004MPS CAVOK 15/11 Q1002 R16/150065 R07/090070 NOSIG RMK QFE742/0989
VFR 14°C / 11°C 40º 8kt >10km - Clouds and Visibility OK 1002 No Significant change. Runway 16: Damp, 26-50% contamination with <1mm, friction coefficient 0.65. Runway 07: Clear and dry, 51-100% contamination with <1mm, friction coefficient 0.70. UNNT 240200Z 04004MPS CAVOK 14/11 Q1002 R16/150065 R07/090070 NOSIG RMK QFE742/0989
VFR 13°C / 10°C 60º 10kt >10km - Clouds and Visibility OK 1002 No Significant change. Runway 07: Clear and dry, 51-100% contamination with <1mm, friction coefficient 0.70. Runway 16: Damp, 26-50% contamination with <1mm, friction coefficient 0.65. UNNT 240130Z 06005MPS CAVOK 13/10 Q1002 R07/090070 R16/150065 NOSIG RMK QFE742/0989
VFR 13°C / 10°C 60º 10kt >10km - Clouds and Visibility OK 1002 No Significant change. Runway 07: Clear and dry, 51-100% contamination with <1mm, friction coefficient 0.70. Runway 16: Damp, 26-50% contamination with <1mm, friction coefficient 0.65. UNNT 240100Z 06005MPS CAVOK 13/10 Q1002 R07/090070 R16/150065 NOSIG RMK QFE742/0989
VFR 13°C / 10°C 60º 10kt >10km - Clouds and Visibility OK 1003 No Significant change. Runway 07: Clear and dry, 51-100% contamination with <1mm, friction coefficient 0.70. Runway 16: Damp, 26-50% contamination with <1mm, friction coefficient 0.65. UNNT 240030Z 06005MPS CAVOK 13/10 Q1003 R07/090070 R16/150065 NOSIG RMK QFE742/0990
VFR 13°C / 10°C 40º 8kt >10km - Clouds and Visibility OK 1003 No Significant change. Runway 07: Clear and dry, 51-100% contamination with <1mm, friction coefficient 0.70. Runway 16: Damp, 26-50% contamination with <1mm, friction coefficient 0.65. UNNT 240000Z 04004MPS CAVOK 13/10 Q1003 R07/090070 R16/150065 NOSIG RMK QFE742/0990
VFR 11°C / 10°C 50º 6kt >10km - Clouds and Visibility OK 1003 No Significant change. Runway 07: Clear and dry, 51-100% contamination with <1mm, friction coefficient 0.70. Runway 16: Damp, 26-50% contamination with <1mm, friction coefficient 0.65. UNNT 232330Z 05003MPS CAVOK 11/10 Q1003 R07/090070 R16/150065 NOSIG RMK QFE743/0990
VFR 10°C / 9°C 50º 8kt >10km - Clouds and Visibility OK 1003 No Significant change. Runway 07: Clear and dry, 51-100% contamination with <1mm, friction coefficient 0.70. Runway 16: Damp, 26-50% contamination with <1mm, friction coefficient 0.65. UNNT 232300Z 05004MPS CAVOK 10/09 Q1003 R07/090070 R16/150065 NOSIG RMK QFE743/0990
VFR 10°C / 9°C 40º 8kt >10km - Clouds and Visibility OK 1004 No Significant change. Runway 07: Clear and dry, 51-100% contamination with <1mm, friction coefficient 0.70. Runway 16: Damp, 26-50% contamination with <1mm, friction coefficient 0.65. UNNT 232230Z 04004MPS CAVOK 10/09 Q1004 R07/090070 R16/150065 NOSIG RMK QFE743/0991
VFR 9°C / 9°C 30º 6kt >10km - Few Clouds 6000ft 1004 No Significant change. Runway 07: Clear and dry, 51-100% contamination with <1mm, friction coefficient 0.70. Runway 16: Damp, 26-50% contamination with <1mm, friction coefficient 0.65. UNNT 232200Z 03003MPS 9999 FEW060CB 09/09 Q1004 R07/090070 R16/150065 NOSIG RMK QFE743/0991
VFR 8°C / 8°C 40º 4kt >10km - Few Clouds 6000ft 1005 No Significant change. Runway 07: Clear and dry, 51-100% contamination with <1mm, friction coefficient 0.70. Runway 16: Damp, 26-50% contamination with <1mm, friction coefficient 0.65. UNNT 232130Z 04002MPS 9999 FEW060CB 08/08 Q1005 R07/090070 R16/150065 NOSIG RMK QFE743/0991
VFR 9°C / 8°C 50º 6kt >10km - Scattered Clouds 5600ft 1005 No Significant change. Runway 07: Clear and dry, 51-100% contamination with <1mm, friction coefficient 0.70. Runway 16: Damp, 26-50% contamination with <1mm, friction coefficient 0.65. UNNT 232100Z 05003MPS 9999 SCT056CB 09/08 Q1005 R07/090070 R16/150065 NOSIG RMK QFE744/0992
VFR 10°C / 9°C 60º 4kt >10km - Few Clouds 5600ft 1005 No Significant change. Runway 07: Clear and dry, 51-100% contamination with <1mm, friction coefficient 0.70. Runway 16: Damp, 26-50% contamination with <1mm, friction coefficient 0.65. UNNT 232030Z 06002MPS 9999 FEW056CB 10/09 Q1005 R07/090070 R16/150065 NOSIG RMK QFE744/0992
VFR 10°C / 9°C 70º 6kt >10km - Few Clouds 5600ft 1006 No Significant change. Runway 07: Clear and dry, 51-100% contamination with <1mm, friction coefficient 0.70. Runway 16: Damp, 26-50% contamination with <1mm, friction coefficient 0.65. UNNT 232000Z 07003MPS 9999 FEW056CB 10/09 Q1006 R07/090070 R16/150065 NOSIG RMK QFE744/0993
VFR 10°C / 10°C 60º 6kt >10km - Few Clouds 5600ft 1006 No Significant change. Runway 07: Clear and dry, 51-100% contamination with <1mm, friction coefficient 0.70. Runway 16: Damp, 26-50% contamination with <1mm, friction coefficient 0.65. UNNT 231930Z 06003MPS 9999 FEW056CB 10/10 Q1006 R07/090070 R16/150065 NOSIG RMK QFE745/0993
VFR 10°C / 9°C 70º 8kt >10km - Few Clouds 5600ft 1006 No Significant change. Runway 07: Clear and dry, 51-100% contamination with <1mm, friction coefficient 0.70. Runway 16: Damp, 26-50% contamination with <1mm, friction coefficient 0.65. UNNT 231900Z 07004MPS 9999 FEW056CB 10/09 Q1006 R07/090070 R16/150065 NOSIG RMK QFE745/0993
VFR 10°C / 9°C 90º 6kt >10km - Few Clouds 5600ft 1007 No Significant change. Runway 07: Clear and dry, 51-100% contamination with <1mm, friction coefficient 0.70. Runway 16: Damp, 26-50% contamination with <1mm, friction coefficient 0.65. UNNT 231830Z 09003MPS 9999 FEW056CB 10/09 Q1007 R07/090070 R16/150065 NOSIG RMK QFE745/0994

VFR

17°C / 11°C

[Больше]
Ветер 70º 10kt
Видимость >10km
Погода -
Облачность Broken Clouds 3200ft
Давление 1002
Изменить No Significant change. Runway 16: Damp, 26-50% contamination with <1mm, friction coefficient 0.65. Runway 07: Clear and dry, 51-100% contamination with <1mm, friction coefficient 0.70.
Необработанный UNNT 240600Z 07005MPS 9999 BKN032CB 17/11 Q1002 R16/150065 R07/090070 NOSIG RMK QFE741/0989

VFR

16°C / 11°C

[Больше]
Ветер 70º 8kt
Видимость >10km
Погода -
Облачность Broken Clouds 3500ft
Давление 1002
Изменить No Significant change. Runway 16: Damp, 26-50% contamination with <1mm, friction coefficient 0.65. Runway 07: Clear and dry, 51-100% contamination with <1mm, friction coefficient 0.70.
Необработанный UNNT 240530Z 07004MPS 9999 BKN035CB 16/11 Q1002 R16/150065 R07/090070 NOSIG RMK QFE742/0989

VFR

16°C / 11°C

[Больше]
Ветер 80º 10kt
Видимость >10km
Погода -
Облачность Scattered Clouds 3400ft
Давление 1002
Изменить No Significant change. Runway 16: Damp, 26-50% contamination with <1mm, friction coefficient 0.65. Runway 07: Clear and dry, 51-100% contamination with <1mm, friction coefficient 0.70.
Необработанный UNNT 240500Z 08005MPS 9999 SCT034 16/11 Q1002 R16/150065 R07/090070 NOSIG RMK QFE742/0989

VFR

16°C / 11°C

[Больше]
Ветер 70º 10kt
Видимость >10km
Погода -
Облачность Scattered Clouds 4000ft
Давление 1002
Изменить No Significant change. Runway 16: Damp, 26-50% contamination with <1mm, friction coefficient 0.65. Runway 07: Clear and dry, 51-100% contamination with <1mm, friction coefficient 0.70.
Необработанный UNNT 240430Z 07005MPS 9999 SCT040 16/11 Q1002 R16/150065 R07/090070 NOSIG RMK QFE741/0989

VFR

16°C / 11°C

[Больше]
Ветер 70º 10kt
Видимость >10km
Погода -
Облачность Few Clouds 4000ft
Давление 1002
Изменить No Significant change. Runway 16: Damp, 26-50% contamination with <1mm, friction coefficient 0.65. Runway 07: Clear and dry, 51-100% contamination with <1mm, friction coefficient 0.70.
Необработанный UNNT 240400Z 07005MPS 9999 FEW040 16/11 Q1002 R16/150065 R07/090070 NOSIG RMK QFE742/0989

VFR

16°C / 11°C

[Больше]
Ветер 60º 10kt
Видимость >10km
Погода -
Облачность Clouds and Visibility OK
Давление 1002
Изменить No Significant change. Runway 16: Damp, 26-50% contamination with <1mm, friction coefficient 0.65. Runway 07: Clear and dry, 51-100% contamination with <1mm, friction coefficient 0.70.
Необработанный UNNT 240330Z 06005MPS CAVOK 16/11 Q1002 R16/150065 R07/090070 NOSIG RMK QFE741/0989

VFR

15°C / 11°C

[Больше]
Ветер 60º 10kt
Видимость >10km
Погода -
Облачность Clouds and Visibility OK
Давление 1002
Изменить No Significant change. Runway 16: Damp, 26-50% contamination with <1mm, friction coefficient 0.65. Runway 07: Clear and dry, 51-100% contamination with <1mm, friction coefficient 0.70.
Необработанный UNNT 240300Z 06005MPS CAVOK 15/11 Q1002 R16/150065 R07/090070 NOSIG RMK QFE742/0989

VFR

15°C / 11°C

[Больше]
Ветер 50º 8kt
Видимость >10km
Погода -
Облачность Clouds and Visibility OK
Давление 1002
Изменить No Significant change. Runway 16: Damp, 26-50% contamination with <1mm, friction coefficient 0.65. Runway 07: Clear and dry, 51-100% contamination with <1mm, friction coefficient 0.70.
Необработанный UNNT 240230Z 05004MPS CAVOK 15/11 Q1002 R16/150065 R07/090070 NOSIG RMK QFE742/0989

VFR

14°C / 11°C

[Больше]
Ветер 40º 8kt
Видимость >10km
Погода -
Облачность Clouds and Visibility OK
Давление 1002
Изменить No Significant change. Runway 16: Damp, 26-50% contamination with <1mm, friction coefficient 0.65. Runway 07: Clear and dry, 51-100% contamination with <1mm, friction coefficient 0.70.
Необработанный UNNT 240200Z 04004MPS CAVOK 14/11 Q1002 R16/150065 R07/090070 NOSIG RMK QFE742/0989

VFR

13°C / 10°C

[Больше]
Ветер 60º 10kt
Видимость >10km
Погода -
Облачность Clouds and Visibility OK
Давление 1002
Изменить No Significant change. Runway 07: Clear and dry, 51-100% contamination with <1mm, friction coefficient 0.70. Runway 16: Damp, 26-50% contamination with <1mm, friction coefficient 0.65.
Необработанный UNNT 240130Z 06005MPS CAVOK 13/10 Q1002 R07/090070 R16/150065 NOSIG RMK QFE742/0989

VFR

13°C / 10°C

[Больше]
Ветер 60º 10kt
Видимость >10km
Погода -
Облачность Clouds and Visibility OK
Давление 1002
Изменить No Significant change. Runway 07: Clear and dry, 51-100% contamination with <1mm, friction coefficient 0.70. Runway 16: Damp, 26-50% contamination with <1mm, friction coefficient 0.65.
Необработанный UNNT 240100Z 06005MPS CAVOK 13/10 Q1002 R07/090070 R16/150065 NOSIG RMK QFE742/0989

VFR

13°C / 10°C

[Больше]
Ветер 60º 10kt
Видимость >10km
Погода -
Облачность Clouds and Visibility OK
Давление 1003
Изменить No Significant change. Runway 07: Clear and dry, 51-100% contamination with <1mm, friction coefficient 0.70. Runway 16: Damp, 26-50% contamination with <1mm, friction coefficient 0.65.
Необработанный UNNT 240030Z 06005MPS CAVOK 13/10 Q1003 R07/090070 R16/150065 NOSIG RMK QFE742/0990

VFR

13°C / 10°C

[Больше]
Ветер 40º 8kt
Видимость >10km
Погода -
Облачность Clouds and Visibility OK
Давление 1003
Изменить No Significant change. Runway 07: Clear and dry, 51-100% contamination with <1mm, friction coefficient 0.70. Runway 16: Damp, 26-50% contamination with <1mm, friction coefficient 0.65.
Необработанный UNNT 240000Z 04004MPS CAVOK 13/10 Q1003 R07/090070 R16/150065 NOSIG RMK QFE742/0990

VFR

11°C / 10°C

[Больше]
Ветер 50º 6kt
Видимость >10km
Погода -
Облачность Clouds and Visibility OK
Давление 1003
Изменить No Significant change. Runway 07: Clear and dry, 51-100% contamination with <1mm, friction coefficient 0.70. Runway 16: Damp, 26-50% contamination with <1mm, friction coefficient 0.65.
Необработанный UNNT 232330Z 05003MPS CAVOK 11/10 Q1003 R07/090070 R16/150065 NOSIG RMK QFE743/0990

VFR

10°C / 9°C

[Больше]
Ветер 50º 8kt
Видимость >10km
Погода -
Облачность Clouds and Visibility OK
Давление 1003
Изменить No Significant change. Runway 07: Clear and dry, 51-100% contamination with <1mm, friction coefficient 0.70. Runway 16: Damp, 26-50% contamination with <1mm, friction coefficient 0.65.
Необработанный UNNT 232300Z 05004MPS CAVOK 10/09 Q1003 R07/090070 R16/150065 NOSIG RMK QFE743/0990

VFR

10°C / 9°C

[Больше]
Ветер 40º 8kt
Видимость >10km
Погода -
Облачность Clouds and Visibility OK
Давление 1004
Изменить No Significant change. Runway 07: Clear and dry, 51-100% contamination with <1mm, friction coefficient 0.70. Runway 16: Damp, 26-50% contamination with <1mm, friction coefficient 0.65.
Необработанный UNNT 232230Z 04004MPS CAVOK 10/09 Q1004 R07/090070 R16/150065 NOSIG RMK QFE743/0991

VFR

9°C / 9°C

[Больше]
Ветер 30º 6kt
Видимость >10km
Погода -
Облачность Few Clouds 6000ft
Давление 1004
Изменить No Significant change. Runway 07: Clear and dry, 51-100% contamination with <1mm, friction coefficient 0.70. Runway 16: Damp, 26-50% contamination with <1mm, friction coefficient 0.65.
Необработанный UNNT 232200Z 03003MPS 9999 FEW060CB 09/09 Q1004 R07/090070 R16/150065 NOSIG RMK QFE743/0991

VFR

8°C / 8°C

[Больше]
Ветер 40º 4kt
Видимость >10km
Погода -
Облачность Few Clouds 6000ft
Давление 1005
Изменить No Significant change. Runway 07: Clear and dry, 51-100% contamination with <1mm, friction coefficient 0.70. Runway 16: Damp, 26-50% contamination with <1mm, friction coefficient 0.65.
Необработанный UNNT 232130Z 04002MPS 9999 FEW060CB 08/08 Q1005 R07/090070 R16/150065 NOSIG RMK QFE743/0991

VFR

9°C / 8°C

[Больше]
Ветер 50º 6kt
Видимость >10km
Погода -
Облачность Scattered Clouds 5600ft
Давление 1005
Изменить No Significant change. Runway 07: Clear and dry, 51-100% contamination with <1mm, friction coefficient 0.70. Runway 16: Damp, 26-50% contamination with <1mm, friction coefficient 0.65.
Необработанный UNNT 232100Z 05003MPS 9999 SCT056CB 09/08 Q1005 R07/090070 R16/150065 NOSIG RMK QFE744/0992

VFR

10°C / 9°C

[Больше]
Ветер 60º 4kt
Видимость >10km
Погода -
Облачность Few Clouds 5600ft
Давление 1005
Изменить No Significant change. Runway 07: Clear and dry, 51-100% contamination with <1mm, friction coefficient 0.70. Runway 16: Damp, 26-50% contamination with <1mm, friction coefficient 0.65.
Необработанный UNNT 232030Z 06002MPS 9999 FEW056CB 10/09 Q1005 R07/090070 R16/150065 NOSIG RMK QFE744/0992

VFR

10°C / 9°C

[Больше]
Ветер 70º 6kt
Видимость >10km
Погода -
Облачность Few Clouds 5600ft
Давление 1006
Изменить No Significant change. Runway 07: Clear and dry, 51-100% contamination with <1mm, friction coefficient 0.70. Runway 16: Damp, 26-50% contamination with <1mm, friction coefficient 0.65.
Необработанный UNNT 232000Z 07003MPS 9999 FEW056CB 10/09 Q1006 R07/090070 R16/150065 NOSIG RMK QFE744/0993

VFR

10°C / 10°C

[Больше]
Ветер 60º 6kt
Видимость >10km
Погода -
Облачность Few Clouds 5600ft
Давление 1006
Изменить No Significant change. Runway 07: Clear and dry, 51-100% contamination with <1mm, friction coefficient 0.70. Runway 16: Damp, 26-50% contamination with <1mm, friction coefficient 0.65.
Необработанный UNNT 231930Z 06003MPS 9999 FEW056CB 10/10 Q1006 R07/090070 R16/150065 NOSIG RMK QFE745/0993

VFR

10°C / 9°C

[Больше]
Ветер 70º 8kt
Видимость >10km
Погода -
Облачность Few Clouds 5600ft
Давление 1006
Изменить No Significant change. Runway 07: Clear and dry, 51-100% contamination with <1mm, friction coefficient 0.70. Runway 16: Damp, 26-50% contamination with <1mm, friction coefficient 0.65.
Необработанный UNNT 231900Z 07004MPS 9999 FEW056CB 10/09 Q1006 R07/090070 R16/150065 NOSIG RMK QFE745/0993

VFR

10°C / 9°C

[Больше]
Ветер 90º 6kt
Видимость >10km
Погода -
Облачность Few Clouds 5600ft
Давление 1007
Изменить No Significant change. Runway 07: Clear and dry, 51-100% contamination with <1mm, friction coefficient 0.70. Runway 16: Damp, 26-50% contamination with <1mm, friction coefficient 0.65.
Необработанный UNNT 231830Z 09003MPS 9999 FEW056CB 10/09 Q1007 R07/090070 R16/150065 NOSIG RMK QFE745/0994

TAF для 55.03°С 82.6°В (UNNT)

From till


From till Wind 90º 10kt. Gust 23kt. Visibility 8000m. Light Showers Rain . Broken Clouds 4000ft.
Temporarly from till Wind 50º 12kt. Gust 29kt. Visibility 3000m. Light Thunderstorm Rain . Broken Clouds 1600ft.
Becoming from till Wind 320º 6kt. Gust 17kt. Visibility 8000m. Light Showers Rain . Broken Clouds 1600ft.
Temporarly from till Broken Clouds 1000ft. Broken Clouds 1600ft.

Необработанный: TAF UNNT 240500Z 2406/2506 09005G12MPS 8000 -SHRA BKN040CB TEMPO 2406/2416 05006G15MPS 3000 -TSRA BKN016CB BECMG 2416/2417 32003G09MPS BKN016CB TEMPO 2417/2503 BKN010 BKN016CB

Текущие спутниковые изображения и снимки дождя для 55.03°С 82.6°В

Указатель местности находится на 55.03°С 82.6°В. [Больше]

Спутниковое изображение в реальном времени сочетает в себе видимый свет в дневное время с инфракрасным излучением в ночное время. Ночью изображение получается не темным, так как инфракрасное излучение может обнаружить разницу температур. К сожалению, низкие облака и туман трудно отличить от температуры у поверхности земли и поэтому могут быть почти незаметны ночью. Спутниковые снимки Meteosat для Европы обновляются каждые 5 минут в режиме реального времени.Снимки GOES-16/GOES-17 (Северная и Южная Америка) и Химавари (Азия) обновляются каждые 10 минут.

Копирайт 2021 EUMETSAT / meteoblue. / Копирайт 2021 meteoblue

Радарный и сверхкраткосрочный прогноз осадков для 55.03°С 82.6°В

Индикатор местности находится на 55.03°С 82.6°В. Анимация показывает радар осадков за последний час, а также прогноз погоды для1h. Умеренная морось или легкий снег могут быть незаметны для радара. Интенсивность осадковмаркированна цветной кодировкой, начиная со светло-синего и заканчивая темно-пурпурным.